sat.trackr.live / text

‹ back to catalog

STARLINK-4776

NORAD 53837 · 2022-114V

PAYLOAD ACTIVE UNKNOWN

§ Identity

Operator
Country
US
Launch date
2022-09-19
Launch site
AFETR
Launch vehicle
Mass (kg)
RCS (m²)

Purposes: comms

External: N2YO · Heavens-Above · Gunter

§ Orbital elements

Epoch: 2026-09-20T22:52:29.536032Z

Period
95.44 min
Inclination
53.1594°
Eccentricity
0.0001396
Mean motion
15.08837403 rev/d
Perigee alt
538.8 km
Apogee alt
540.7 km
Semi-major
6,917.9 km
B*
2.1153e-5
RAAN
146.5939°
Arg perigee
92.2657°
Mean anomaly
267.8494°
Rev number
22,231

§ Raw data

STARLINK-47761 53837U 22114V   26263.95311963  .00000049  00000+0  21153-4 0  99902 53837  53.1594 146.5939 0001396  92.2657 267.8494 15.08837403222311

JSON: /api/v1/satellites/53837 · /tle

For live sub-satellite position, see the globe view (requires WebGL).

§ Visibility from observer

Set your observer location to see the next 7 days of passes ≥ 10°. The values pass through the URL so the page stays shareable.

No JS? Fill the form by hand. The geolocation button needs JavaScript.